Location: Katowice
(50.2611°N, 19.0242°E)
Time: 20:46:38
(UTC+02:00)

ISS - Pass Details

Date: 30 March 2019
Orbit: 408 x 410 km, 51.6° (Epoch: 25 April)

Event Time Altitude Azimuth Distance (km) Brightness Sun altitude
Rises 20:51:16 0° 286° (WNW) 2,338 1.1 -23.9°
Reaches altitude 10° 20:53:22 10° 284° (WNW) 1,475 -0.2 -24.1°
Enters shadow 20:55:12 30° 277° (W) 758 -2.0 -24.3°
